Vorticity
11 11 11 11 10 10 10 9 9 9 8 8 8 8 8 8 8 9 9 9 10 10 10 11 12 13 15 15 15 14 14 15 18 20 23 26 27 27 26 24 18 12 10 15 18 19 20 20 21 22 24 26 26 23 19 15 15 15 16 18 18 18 18 18 17 15 14 12 11
12 12 13 13 13 14 14 14 13 12 12 11 10 9 8 7 6 6 6 6 6 6 6 6 7 8 9 10 10 9 9 9 11 14 18 22 24 26 26 26 19 10 3 4 7 11 14 15 15 16 19 23 26 25 23 21 19 17 15 14 13 12 11 10 8 5 3 3 5
15 15 16 17 18 19 20 21 21 21 21 20 18 16 14 12 11 9 8 7 6 5 5 4 4 4 5 5 6 6 6 6 7 9 11 14 17 20 24 27 23 14 6 4 4 7 10 11 10 11 14 18 24 28 29 27 22 16 11 8 7 7 6 5 3 2 3 6 11
16 17 18 20 21 23 25 27 28 30 31 31 30 28 26 22 20 17 15 13 11 9 7 6 5 5 5 5 5 5 5 5 6 7 8 10 12 15 20 26 29 26 20 13 8 6 6 7 7 9 11 14 22 28 30 25 16 9 4 2 3 6 8 9 10 12 15 18 18
16 18 19 21 23 26 28 31 33 36 38 39 40 40 38 34 30 27 24 22 19 16 13 11 9 8 8 7 7 7 7 7 7 7 7 8 10 13 17 23 28 27 22 13 9 6 5 5 8 10 11 11 17 23 24 16 6 -0 -4 -5 -2 1 4 8 11 14 15 15 13
18 20 22 25 27 29 32 35 37 39 41 43 45 46 45 43 39 35 32 29 27 24 22 18 16 14 12 12 11 10 9 9 8 8 7 7 9 11 14 18 18 18 16 14 9 6 5 7 9 10 10 10 13 17 18 13 12 12 13 10 6 5 6 8 10 10 10 9 9
21 23 25 27 29 31 32 34 36 38 40 42 45 46 47 46 43 40 36 33 32 31 29 27 24 21 18 17 16 14 12 11 11 10 9 8 8 10 12 12 11 12 13 14 11 6 4 5 5 6 9 16 15 14 13 14 16 17 18 21 21 20 20 19 18 17 14 11 8
23 24 25 25 26 27 28 29 31 32 34 36 39 41 43 44 43 41 39 36 35 33 32 31 29 26 24 21 20 20 18 14 14 13 11 10 10 11 12 11 9 8 9 12 11 7 3 1 -0 5 13 23 19 13 10 13 16 16 14 12 14 15 16 16 16 14 12 8 3
22 22 21 21 22 22 23 23 24 25 27 28 30 32 35 37 39 39 39 37 35 34 33 32 31 29 27 25 21 19 18 17 16 15 14 13 12 12 13 14 10 7 7 10 11 8 4 -1 0 6 13 19 20 16 11 9 10 9 7 4 2 1 2 4 7 10 11 11 8
20 19 19 18 18 18 19 19 19 20 21 22 23 25 27 29 31 33 34 35 34 33 33 32 31 30 28 26 23 21 19 19 18 18 18 18 15 15 15 17 13 9 6 7 9 7 5 2 7 10 12 13 19 19 14 5 -2 -6 -6 -3 1 4 9 15 20 23 24 23 21
19 18 17 17 17 17 17 17 17 18 18 19 20 22 23 24 25 27 28 30 31 31 31 30 30 29 27 25 23 21 19 19 20 21 23 23 20 18 17 19 18 14 8 5 5 5 5 6 12 16 17 17 21 19 11 -2 -11 -9 2 18 25 29 32 35 36 37 35 33 30
18 17 17 17 17 17 17 17 17 17 18 19 20 21 22 23 24 25 25 26 27 28 28 28 29 28 27 25 23 21 19 17 18 18 19 21 21 20 19 20 21 19 14 7 5 4 4 6 11 14 16 17 18 14 6 -6 -6 9 30 48 45 40 36 33 33 33 33 34 32
18 17 17 17 17 17 17 17 16 17 17 18 19 20 21 22 23 24 24 25 26 26 27 28 28 28 27 25 24 22 20 16 12 10 11 16 19 20 20 20 23 22 18 11 7 4 2 2 3 4 4 7 14 16 16 13 22 37 48 46 34 27 23 21 21 23 25 27 27
18 18 17 17 16 16 15 15 14 14 15 16 17 18 19 20 21 22 23 23 24 25 26 28 28 28 28 27 26 25 22 18 11 7 6 9 15 18 20 21 24 24 21 15 9 4 0 -3 -5 -6 -3 7 23 34 39 41 45 44 37 23 16 14 14 14 15 16 18 19 18
18 17 16 16 15 14 13 12 12 12 13 14 15 16 17 18 19 20 21 21 22 23 25 26 27 28 29 29 28 27 25 21 15 10 7 7 11 16 20 22 24 24 23 18 11 4 -2 -7 -11 -8 1 18 34 43 47 45 38 28 17 10 9 10 11 11 12 12 13 13 11
17 16 15 14 13 12 11 10 11 11 12 13 15 16 18 19 19 19 20 20 21 22 23 24 25 27 28 29 29 29 28 25 20 15 11 9 11 14 17 20 22 24 23 20 14 6 -2 -9 -10 -2 10 24 30 32 31 25 15 8 5 5 6 7 8 8 8 8 9 8 7
16 15 14 13 12 11 10 9 10 11 12 14 16 18 19 21 21 21 21 21 21 22 22 22 23 24 26 27 28 29 29 28 23 18 14 12 13 15 17 19 21 23 23 22 16 10 3 -4 -2 7 16 19 18 17 15 10 3 1 1 3 5 6 6 6 6 6 6 6 6
13 13 13 12 11 10 10 10 10 11 13 14 17 19 21 23 23 23 23 22 23 23 23 22 22 23 23 24 26 28 28 28 24 20 16 14 14 16 18 20 21 22 22 22 19 16 11 7 11 15 16 10 9 11 13 12 9 7 6 7 8 8 8 8 7 7 7 7 7
11 11 11 12 12 12 11 11 11 12 13 15 17 19 21 24 25 25 25 25 25 25 25 23 22 22 22 22 23 25 26 26 25 22 18 15 14 16 18 21 22 22 21 19 19 17 16 14 17 17 13 4 4 9 14 16 15 13 12 12 13 13 13 12 11 11 10 10 10
8 9 10 12 13 13 13 12 11 12 13 14 17 19 22 24 25 26 26 27 27 27 26 24 23 22 21 21 22 22 24 25 26 24 21 17 15 15 18 21 22 20 18 16 14 13 12 11 14 14 10 1 2 7 11 12 11 10 10 10 12 13 14 14 14 13 12 11 11
7 8 9 12 14 15 14 12 11 11 12 14 17 20 22 23 25 26 27 28 28 27 26 25 23 22 22 21 21 21 22 23 25 26 24 21 18 17 18 21 21 18 15 11 10 8 7 5 9 10 9 1 2 5 7 5 4 5 5 6 8 10 11 12 12 12 11 11 10
6 7 8 11 14 16 15 12 10 10 11 14 18 21 23 23 24 25 26 26 25 25 24 24 23 23 22 21 21 21 22 23 25 26 26 25 22 20 20 19 16 12 9 8 8 7 5 2 7 10 9 2 2 1 1 1 3 4 5 5 6 7 9 10 10 10 10 10 10
7 6 7 10 14 16 15 12 10 9 11 14 18 21 23 23 22 23 22 21 20 20 21 23 25 25 25 24 24 24 24 25 26 27 27 27 26 23 19 12 5 3 6 12 13 11 7 4 10 12 10 3 -1 -4 -4 0 5 7 6 5 6 7 8 9 10 10 11 11 11
7 6 7 9 13 15 16 13 9 9 10 13 17 20 22 23 21 20 19 17 14 14 18 24 28 28 27 24 21 16 11 9 13 17 21 25 27 24 17 6 -1 1 10 21 21 17 11 9 14 15 11 3 -4 -7 -5 3 8 10 9 7 7 8 9 9 10 10 11 11 11
8 7 6 7 11 14 15 13 10 8 9 11 15 18 21 22 21 20 18 15 11 10 15 24 29 29 25 17 6 -1 -1 5 12 15 16 18 21 19 14 4 0 5 15 26 24 18 12 10 15 15 10 1 -6 -7 -2 6 11 12 11 9 9 8 9 9 10 10 11 12 12
9 8 6 6 9 13 15 14 10 8 8 10 14 17 19 21 21 20 18 16 10 7 10 21 28 28 20 5 -8 -9 -2 11 23 29 30 26 20 15 11 6 4 9 16 22 19 14 9 8 12 12 8 -0 -5 -3 2 8 12 13 13 11 9 8 8 8 9 10 12 13 13
10 9 7 6 8 11 14 15 11 8 7 9 12 15 17 19 21 21 21 18 12 7 6 15 25 26 18 3 -8 -9 -5 2 9 19 29 37 33 25 17 10 7 9 12 14 10 7 4 4 8 9 6 1 -1 1 5 10 13 14 14 12 9 7 6 6 7 9 11 13 14
11 9 8 7 7 9 12 15 13 10 7 7 10 13 15 17 19 22 23 23 16 10 8 12 21 24 20 10 1 -3 -4 -4 -3 2 11 24 34 36 31 21 14 10 8 7 4 3 3 5 9 9 7 4 3 4 7 11 13 14 13 10 7 4 3 3 4 6 9 11 12
11 11 9 8 7 8 10 13 13 11 8 6 9 11 14 15 16 19 22 25 23 19 16 17 22 23 21 17 13 9 6 2 -1 -2 -0 7 20 30 36 34 24 16 9 5 3 4 6 9 10 10 8 6 6 8 10 11 13 13 11 8 5 2 1 0 1 3 6 9 9
12 12 11 10 8 7 8 11 13 13 10 6 7 9 12 14 14 15 18 22 25 27 27 27 27 24 20 16 14 14 13 12 9 6 5 6 13 22 31 35 30 23 15 9 7 6 7 8 9 9 8 7 8 10 11 12 12 11 9 6 3 1 -0 -1 -1 1 4 7 9
13 13 12 11 10 8 7 8 11 13 12 8 6 7 10 13 13 14 15 18 23 28 32 32 26 18 11 5 5 8 12 15 15 16 16 18 20 23 27 31 32 29 24 18 14 12 10 9 9 9 9 9 10 11 12 12 11 9 7 5 3 2 0 -1 -1 1 3 6 8
13 13 13 12 11 9 8 7 9 11 12 11 7 6 7 10 12 13 13 15 19 25 29 29 20 11 4 0 2 5 10 14 17 19 21 22 22 22 23 25 27 29 29 27 24 21 19 17 15 14 13 13 14 14 14 12 10 8 6 5 4 3 2 1 1 2 3 6 8
12 12 13 13 12 11 9 8 8 9 11 12 10 7 5 7 10 11 12 12 15 19 23 25 16 8 1 -1 1 3 7 11 14 16 17 18 17 15 15 16 18 21 24 26 26 26 25 24 22 20 19 19 19 17 15 13 10 8 7 6 6 5 5 4 3 3 5 7 8
11 11 12 12 13 12 11 9 8 8 9 11 11 9 6 4 6 9 11 12 12 14 17 19 15 10 5 2 2 4 6 8 10 11 12 13 12 10 9 8 10 11 13 15 16 18 18 19 19 19 20 20 20 18 16 14 12 10 9 8 8 7 7 6 6 6 7 8 9
10 10 10 11 12 12 12 11 9 8 8 9 11 11 9 6 4 5 8 10 12 12 13 15 14 13 11 9 8 8 8 9 9 9 9 9 9 8 7 5 4 4 5 5 6 6 7 8 9 10 12 14 15 15 15 14 13 12 10 10 9 9 8 8 8 9 9 10 10
11 10 9 9 11 12 12 12 11 10 9 8 9 11 11 10 6 4 5 7 10 11 13 13 14 14 15 14 14 13 12 12 11 10 9 7 7 6 5 4 3 2 1 1 1 2 2 2 2 4 6 9 11 12 12 11 11 11 10 10 9 9 9 10 10 10 11 11 10
13 11 9 9 9 10 11 12 12 11 10 9 8 9 10 11 10 7 5 4 6 8 10 12 13 14 15 16 16 16 15 14 13 12 10 8 7 6 6 5 4 3 3 2 3 3 3 3 3 4 6 8 10 10 10 9 9 9 9 9 10 11 11 11 11 11 10 9 9
15 13 11 9 8 9 10 11 12 12 12 11 9 9 9 10 11 10 8 5 4 5 6 8 9 11 12 14 15 16 16 15 15 14 13 12 11 10 10 9 9 8 8 7 7 7 7 7 7 8 9 11 11 11 11 9 9 8 9 10 11 12 12 12 11 10 9 7 7
16 15 13 11 9 8 8 9 10 11 12 12 11 10 9 9 10 11 11 9 6 5 4 4 5 6 8 10 12 14 15 16 16 16 16 16 15 15 14 14 13 12 12 11 11 11 11 11 11 11 12 12 12 12 11 9 9 9 9 10 11 12 12 11 9 8 6 5 6
17 17 16 14 11 10 8 8 9 10 11 12 12 11 11 9 9 10 10 11 10 8 6 4 3 3 3 4 6 8 11 12 13 14 15 16 16 17 16 16 16 15 14 13 12 12 11 11 11 11 11 11 11 10 10 9 9 9 9 10 10 11 11 10 7 5 4 4 5
18 18 17 16 15 12 10 8 8 8 9 10 11 12 12 11 10 10 10 10 11 10 8 6 5 3 2 2 2 3 5 7 8 9 11 12 13 14 14 15 15 15 14 12 11 10 10 10 9 9 9 8 8 8 8 8 8 8 8 9 8 8 8 9 6 4 3 4 5
Height
5546 5544 5542 5540 5538 5537 5536 5535 5535 5534 5533 5532 5532 5531 5530 5530 5530 5530 5531 5531 5532 5532 5533 5533 5535 5536 5537 5538 5539 5539 5539 5540 5540 5540 5541 5543 5544 5544 5545 5545 5546 5548 5550 5552 5553 5555 5556 5558 5559 5561 5562 5563 5564 5566 5568 5570 5572 5573 5575 5576 5577 5579 5580 5581 5583 5584 5585 5586 5587
5540 5538 5536 5534 5532 5530 5529 5528 5527 5526 5526 5525 5524 5523 5522 5522 5522 5522 5523 5524 5524 5525 5526 5527 5528 5530 5531 5532 5533 5533 5533 5533 5534 5535 5536 5537 5538 5539 5539 5540 5541 5543 5545 5546 5547 5549 5551 5553 5555 5556 5557 5558 5559 5560 5562 5564 5566 5569 5570 5572 5573 5575 5576 5578 5579 5580 5580 5582 5583
5534 5532 5530 5527 5525 5523 5522 5520 5520 5519 5518 5516 5515 5515 5514 5514 5514 5514 5515 5515 5516 5517 5519 5520 5522 5523 5525 5526 5526 5527 5527 5527 5528 5529 5530 5532 5533 5534 5535 5535 5536 5538 5540 5541 5542 5544 5545 5548 5550 5552 5553 5554 5555 5556 5557 5559 5561 5564 5566 5567 5569 5570 5572 5573 5574 5575 5576 5577 5578
5528 5525 5523 5520 5518 5516 5514 5512 5511 5510 5509 5508 5507 5506 5505 5505 5505 5505 5506 5506 5508 5510 5511 5513 5515 5516 5518 5519 5520 5520 5520 5521 5522 5524 5525 5527 5528 5529 5530 5531 5532 5534 5536 5538 5539 5540 5541 5543 5545 5547 5549 5550 5551 5552 5553 5555 5557 5560 5561 5562 5564 5566 5567 5568 5568 5570 5571 5572 5573
5522 5520 5517 5514 5511 5509 5507 5505 5503 5501 5500 5499 5499 5498 5497 5496 5496 5496 5497 5498 5500 5501 5503 5505 5507 5509 5510 5512 5513 5514 5514 5515 5516 5518 5520 5523 5524 5525 5527 5530 5532 5533 5534 5535 5535 5535 5537 5539 5541 5543 5544 5546 5547 5549 5550 5552 5554 5555 5556 5557 5559 5560 5561 5562 5563 5564 5565 5567 5568
5517 5514 5511 5508 5506 5503 5500 5498 5496 5494 5493 5491 5490 5490 5489 5489 5489 5489 5489 5490 5491 5493 5495 5497 5499 5501 5503 5505 5506 5507 5508 5509 5510 5512 5515 5517 5520 5523 5525 5527 5528 5529 5528 5528 5529 5531 5533 5535 5537 5539 5540 5542 5543 5545 5546 5548 5550 5551 5552 5553 5554 5555 5555 5557 5558 5559 5560 5562 5563
5511 5509 5506 5504 5501 5498 5495 5493 5491 5489 5487 5485 5484 5483 5482 5482 5482 5482 5482 5483 5484 5485 5487 5489 5491 5493 5495 5497 5500 5501 5502 5503 5505 5506 5509 5511 5514 5517 5520 5522 5523 5522 5522 5523 5525 5527 5529 5531 5533 5535 5536 5538 5539 5541 5542 5544 5545 5545 5547 5548 5550 5551 5552 5553 5554 5555 5556 5558 5559
5507 5505 5502 5499 5496 5494 5491 5489 5487 5485 5483 5481 5480 5478 5477 5477 5476 5476 5476 5477 5478 5479 5480 5482 5484 5486 5488 5490 5493 5495 5496 5498 5499 5501 5503 5505 5508 5510 5513 5516 5518 5518 5517 5518 5520 5523 5525 5527 5529 5530 5532 5534 5536 5537 5538 5540 5541 5542 5543 5544 5545 5546 5548 5549 5550 5551 5553 5554 5555
5503 5500 5498 5495 5493 5490 5488 5486 5484 5481 5480 5478 5476 5475 5474 5473 5472 5472 5471 5472 5472 5473 5474 5475 5477 5479 5481 5484 5486 5488 5491 5492 5494 5495 5497 5499 5501 5504 5505 5508 5510 5512 5513 5515 5517 5519 5520 5522 5524 5525 5527 5530 5531 5533 5535 5536 5538 5539 5540 5541 5542 5543 5544 5545 5546 5547 5548 5549 5550
5500 5497 5495 5492 5490 5488 5485 5483 5481 5479 5477 5475 5474 5472 5471 5470 5469 5468 5468 5467 5468 5468 5469 5470 5471 5473 5475 5477 5480 5482 5486 5488 5489 5491 5492 5494 5495 5498 5500 5502 5504 5506 5508 5510 5512 5514 5516 5517 5519 5520 5522 5525 5526 5528 5530 5531 5533 5535 5536 5537 5538 5539 5540 5540 5541 5541 5542 5543 5544
5496 5494 5492 5490 5487 5485 5483 5481 5479 5476 5475 5473 5471 5470 5468 5467 5465 5465 5464 5464 5464 5464 5465 5465 5467 5468 5470 5472 5474 5477 5480 5483 5485 5487 5489 5490 5490 5492 5494 5496 5498 5500 5503 5505 5507 5509 5511 5512 5514 5515 5517 5520 5522 5524 5525 5526 5528 5530 5531 5532 5533 5534 5534 5534 5535 5535 5536 5538 5539
5494 5491 5489 5487 5485 5482 5480 5478 5476 5474 5472 5470 5469 5467 5465 5464 5463 5462 5461 5461 5460 5460 5461 5461 5462 5464 5465 5467 5469 5471 5474 5478 5480 5482 5484 5485 5486 5487 5489 5491 5493 5495 5497 5500 5502 5505 5506 5508 5510 5512 5514 5516 5518 5520 5520 5521 5522 5524 5525 5527 5528 5528 5529 5529 5530 5530 5532 5533 5535
5491 5489 5486 5484 5482 5480 5478 5476 5474 5472 5470 5468 5466 5465 5463 5461 5460 5459 5458 5458 5457 5457 5458 5458 5459 5460 5461 5463 5465 5467 5469 5472 5475 5477 5479 5480 5481 5483 5484 5486 5488 5490 5493 5495 5498 5500 5503 5505 5506 5508 5510 5512 5514 5515 5515 5516 5517 5518 5520 5522 5523 5524 5524 5524 5525 5526 5527 5529 5530
5488 5486 5484 5482 5480 5478 5476 5474 5472 5470 5468 5466 5464 5462 5460 5459 5457 5456 5455 5455 5454 5454 5454 5455 5455 5456 5457 5459 5460 5462 5465 5467 5469 5471 5474 5476 5477 5479 5480 5482 5484 5486 5489 5491 5494 5496 5499 5500 5502 5504 5506 5508 5509 5510 5510 5511 5512 5514 5516 5518 5519 5520 5520 5520 5521 5522 5524 5525 5527
5486 5484 5482 5480 5478 5476 5474 5472 5470 5468 5465 5464 5461 5460 5458 5456 5455 5454 5453 5452 5451 5451 5451 5451 5452 5452 5454 5455 5456 5458 5460 5463 5465 5467 5469 5471 5473 5475 5476 5478 5480 5482 5485 5488 5490 5493 5495 5497 5499 5500 5502 5504 5505 5505 5506 5507 5509 5511 5513 5515 5515 5515 5515 5516 5517 5519 5520 5522 5523
5484 5482 5480 5478 5476 5474 5472 5470 5468 5466 5464 5461 5459 5457 5456 5454 5453 5451 5450 5449 5448 5448 5448 5448 5449 5449 5450 5451 5453 5455 5457 5459 5461 5463 5465 5467 5469 5470 5472 5474 5476 5479 5481 5484 5487 5490 5491 5493 5495 5497 5499 5500 5500 5501 5503 5505 5506 5508 5509 5510 5510 5511 5511 5513 5514 5515 5516 5518 5519
5482 5480 5478 5476 5474 5472 5470 5468 5466 5464 5461 5459 5457 5455 5454 5452 5450 5449 5448 5446 5446 5445 5445 5445 5446 5447 5447 5449 5450 5451 5454 5456 5458 5460 5462 5463 5465 5467 5468 5470 5472 5475 5478 5480 5484 5486 5489 5490 5493 5494 5495 5496 5497 5499 5500 5501 5503 5504 5505 5505 5506 5506 5508 5509 5510 5511 5513 5514 5516
5480 5479 5477 5475 5473 5470 5468 5466 5464 5461 5459 5457 5455 5453 5451 5450 5448 5447 5445 5444 5443 5443 5443 5443 5444 5444 5445 5446 5447 5449 5451 5453 5455 5457 5459 5460 5462 5464 5466 5468 5470 5472 5475 5478 5480 5484 5486 5488 5490 5491 5492 5493 5494 5495 5497 5499 5500 5500 5501 5501 5502 5503 5504 5505 5506 5508 5509 5511 5512
5479 5477 5475 5473 5471 5469 5467 5464 5462 5460 5457 5455 5453 5451 5449 5448 5446 5445 5443 5442 5441 5441 5441 5441 5441 5442 5443 5444 5445 5446 5448 5450 5452 5454 5456 5458 5460 5461 5464 5466 5468 5470 5473 5475 5479 5482 5484 5485 5487 5488 5489 5490 5491 5493 5495 5496 5497 5497 5497 5498 5498 5499 5500 5501 5503 5504 5505 5507 5508
5477 5475 5473 5471 5469 5467 5465 5463 5460 5458 5456 5454 5452 5450 5448 5446 5444 5443 5441 5440 5440 5439 5439 5439 5440 5440 5441 5442 5443 5444 5445 5447 5449 5451 5453 5455 5457 5459 5461 5463 5465 5468 5470 5473 5476 5479 5480 5482 5483 5485 5486 5487 5488 5490 5492 5493 5494 5494 5494 5494 5495 5496 5497 5498 5499 5500 5502 5503 5505
5475 5473 5471 5470 5468 5465 5463 5461 5459 5456 5454 5452 5450 5448 5446 5444 5443 5441 5440 5439 5439 5438 5438 5438 5438 5439 5440 5440 5441 5443 5444 5446 5447 5449 5450 5452 5454 5456 5458 5460 5462 5465 5467 5470 5472 5474 5476 5477 5479 5480 5482 5484 5485 5487 5489 5490 5490 5490 5490 5491 5491 5492 5493 5495 5496 5497 5498 5499 5500
5473 5471 5470 5468 5466 5464 5462 5459 5457 5455 5453 5451 5449 5447 5445 5443 5442 5440 5439 5438 5438 5437 5437 5437 5437 5438 5438 5439 5440 5441 5442 5444 5445 5447 5448 5450 5452 5454 5456 5458 5460 5462 5464 5466 5468 5470 5472 5473 5475 5477 5479 5481 5482 5484 5485 5485 5485 5486 5486 5487 5488 5489 5490 5491 5492 5493 5494 5495 5496
5471 5470 5468 5466 5464 5462 5460 5458 5455 5453 5451 5450 5448 5446 5444 5442 5441 5440 5439 5438 5437 5437 5436 5436 5436 5437 5437 5438 5439 5440 5441 5442 5443 5445 5446 5448 5450 5452 5455 5457 5459 5460 5462 5464 5465 5467 5468 5470 5471 5473 5475 5477 5479 5480 5480 5481 5481 5482 5483 5484 5485 5486 5487 5488 5489 5490 5491 5492 5493
5470 5468 5466 5464 5462 5460 5459 5456 5454 5452 5450 5449 5447 5445 5443 5441 5440 5439 5438 5437 5437 5436 5436 5435 5435 5436 5436 5437 5438 5439 5440 5442 5443 5444 5445 5447 5449 5451 5453 5455 5456 5457 5459 5460 5462 5463 5465 5465 5467 5469 5471 5473 5475 5476 5476 5477 5477 5478 5479 5480 5482 5483 5484 5485 5486 5487 5487 5488 5489
5468 5466 5464 5462 5461 5459 5457 5455 5453 5451 5449 5447 5445 5444 5442 5440 5439 5438 5437 5437 5436 5436 5435 5435 5435 5435 5435 5436 5437 5439 5440 5442 5443 5444 5445 5446 5447 5449 5450 5451 5452 5453 5455 5456 5458 5459 5460 5462 5464 5465 5467 5469 5470 5472 5472 5473 5473 5474 5475 5477 5478 5480 5481 5482 5483 5483 5484 5485 5486
5466 5464 5462 5460 5459 5457 5456 5454 5452 5450 5448 5446 5445 5443 5441 5440 5438 5437 5436 5436 5435 5435 5435 5435 5434 5434 5435 5435 5436 5437 5439 5440 5441 5442 5443 5444 5445 5447 5448 5449 5450 5450 5452 5453 5455 5456 5457 5459 5460 5462 5464 5465 5467 5468 5469 5469 5470 5471 5472 5473 5475 5476 5478 5479 5480 5480 5481 5482 5483
5464 5462 5460 5459 5457 5456 5454 5452 5451 5449 5447 5445 5444 5442 5440 5439 5437 5436 5435 5435 5434 5434 5434 5434 5434 5434 5434 5434 5435 5435 5436 5437 5438 5439 5440 5442 5443 5444 5445 5446 5447 5449 5450 5451 5452 5454 5455 5456 5457 5459 5460 5462 5463 5464 5465 5465 5466 5467 5469 5470 5471 5473 5474 5475 5476 5477 5478 5479 5479
5462 5460 5459 5457 5455 5454 5452 5451 5449 5448 5446 5444 5443 5441 5440 5438 5437 5435 5435 5434 5434 5433 5433 5433 5433 5433 5433 5434 5434 5434 5435 5435 5436 5437 5438 5439 5440 5441 5443 5444 5445 5447 5448 5449 5450 5451 5452 5453 5454 5456 5457 5458 5460 5460 5461 5462 5463 5464 5465 5467 5468 5470 5471 5472 5473 5474 5475 5475 5476
5460 5459 5457 5455 5454 5452 5451 5450 5448 5446 5445 5443 5442 5440 5439 5437 5436 5435 5434 5433 5433 5432 5432 5432 5432 5432 5432 5432 5433 5433 5434 5434 5435 5435 5436 5437 5438 5439 5440 5442 5443 5445 5445 5446 5447 5448 5449 5450 5451 5452 5454 5455 5455 5456 5457 5458 5460 5461 5462 5464 5465 5466 5467 5469 5470 5470 5471 5472 5473
5458 5457 5455 5454 5452 5451 5449 5448 5446 5445 5444 5442 5441 5439 5438 5436 5435 5434 5433 5432 5432 5431 5431 5430 5430 5430 5431 5431 5432 5432 5433 5433 5433 5434 5435 5435 5436 5437 5438 5439 5440 5441 5442 5443 5443 5444 5445 5446 5448 5449 5450 5451 5452 5453 5454 5455 5457 5458 5460 5460 5462 5463 5464 5465 5466 5467 5468 5469 5470
5456 5455 5453 5452 5450 5449 5447 5446 5445 5443 5442 5441 5440 5439 5437 5435 5434 5433 5432 5431 5430 5430 5430 5430 5430 5430 5430 5430 5430 5431 5431 5431 5432 5432 5433 5434 5434 5435 5435 5436 5437 5438 5439 5440 5440 5441 5442 5443 5444 5445 5446 5448 5449 5450 5451 5452 5454 5455 5456 5457 5458 5459 5460 5462 5463 5464 5465 5465 5466
5454 5452 5451 5450 5448 5447 5446 5444 5443 5442 5440 5440 5438 5437 5436 5435 5434 5432 5431 5430 5430 5429 5429 5429 5429 5429 5429 5429 5429 5429 5430 5430 5430 5430 5431 5431 5432 5433 5433 5434 5434 5435 5436 5437 5438 5439 5440 5440 5441 5442 5443 5444 5445 5447 5448 5450 5451 5452 5453 5454 5455 5456 5457 5458 5459 5460 5461 5462 5463
5452 5450 5449 5448 5446 5445 5444 5442 5441 5440 5439 5438 5437 5436 5435 5434 5433 5432 5430 5430 5429 5429 5428 5428 5428 5428 5428 5428 5427 5427 5428 5428 5428 5429 5429 5429 5430 5430 5431 5431 5432 5433 5434 5435 5436 5437 5437 5438 5439 5440 5441 5442 5443 5444 5445 5446 5447 5448 5449 5450 5451 5452 5453 5455 5455 5457 5458 5458 5459
5449 5448 5447 5445 5444 5443 5442 5440 5439 5438 5437 5436 5435 5435 5434 5433 5432 5431 5430 5429 5428 5428 5427 5427 5427 5427 5427 5427 5426 5426 5426 5426 5426 5427 5427 5427 5428 5428 5429 5429 5430 5430 5431 5432 5433 5434 5435 5436 5437 5438 5439 5440 5440 5441 5442 5443 5444 5445 5446 5447 5448 5449 5450 5451 5452 5453 5454 5455 5455
5447 5446 5445 5443 5442 5441 5440 5438 5437 5436 5435 5434 5433 5433 5432 5431 5430 5430 5429 5428 5427 5427 5426 5426 5425 5425 5425 5425 5425 5425 5424 5425 5425 5425 5425 5426 5426 5426 5427 5427 5427 5428 5429 5429 5430 5431 5432 5433 5434 5435 5436 5437 5437 5438 5439 5440 5441 5442 5443 5443 5444 5445 5446 5447 5448 5449 5450 5451 5451
5444 5443 5442 5441 5440 5438 5437 5436 5435 5434 5433 5432 5431 5430 5430 5429 5429 5428 5427 5426 5426 5425 5425 5425 5424 5423 5423 5423 5423 5423 5422 5422 5423 5423 5423 5424 5424 5425 5425 5425 5425 5425 5426 5426 5427 5428 5429 5430 5431 5432 5433 5433 5434 5435 5436 5437 5438 5439 5440 5440 5441 5441 5442 5444 5445 5445 5446 5447 5448
5441 5440 5439 5438 5437 5436 5435 5434 5433 5432 5431 5430 5429 5428 5428 5427 5426 5426 5425 5425 5424 5424 5423 5423 5422 5422 5421 5421 5421 5420 5420 5420 5420 5420 5421 5421 5421 5422 5422 5423 5423 5423 5424 5424 5425 5425 5426 5427 5428 5429 5430 5430 5431 5432 5433 5434 5435 5436 5436 5437 5437 5438 5439 5440 5441 5442 5443 5444 5444
5439 5437 5436 5435 5435 5434 5433 5431 5430 5430 5429 5428 5427 5426 5425 5425 5424 5423 5423 5422 5422 5422 5421 5421 5421 5420 5420 5419 5419 5419 5419 5418 5418 5418 5419 5419 5419 5420 5420 5420 5420 5421 5421 5422 5423 5424 5424 5425 5426 5426 5427 5427 5428 5429 5430 5431 5432 5433 5434 5434 5434 5435 5435 5436 5437 5438 5439 5440 5441
5435 5435 5434 5433 5432 5431 5430 5429 5428 5427 5426 5425 5424 5424 5423 5422 5421 5421 5420 5420 5419 5419 5419 5419 5419 5419 5418 5417 5417 5417 5417 5416 5416 5416 5416 5417 5417 5417 5418 5418 5418 5419 5419 5420 5420 5421 5422 5422 5423 5424 5424 5424 5425 5426 5427 5428 5429 5430 5431 5431 5431 5432 5432 5433 5434 5435 5435 5436 5437
5433 5431 5430 5430 5429 5428 5427 5426 5425 5425 5424 5423 5422 5421 5420 5420 5419 5418 5418 5417 5417 5416 5416 5416 5416 5416 5416 5415 5415 5415 5415 5415 5414 5414 5415 5415 5415 5415 5415 5415 5416 5416 5416 5417 5418 5419 5419 5420 5420 5421 5421 5421 5422 5423 5424 5425 5426 5427 5428 5428 5429 5429 5429 5429 5430 5431 5432 5433 5434
5430 5429 5427 5426 5426 5425 5424 5423 5423 5422 5421 5420 5419 5418 5417 5417 5416 5416 5415 5415 5414 5414 5414 5413 5413 5413 5413 5413 5413 5413 5412 5412 5412 5412 5412 5412 5412 5413 5413 5413 5413 5414 5414 5414 5415 5416 5416 5417 5417 5418 5418 5418 5419 5420 5421 5422 5423 5424 5424 5425 5425 5425 5425 5426 5427 5428 5429 5430 5430